Time,TemperatureF,DewpointF,PressureIn,WindDirection,WindDirectionDegrees,WindSpeedMPH,WindSpeedGustMPH,Humidity,HourlyPrecipIn,Conditions,Clouds,dailyrainin,SolarRadiationWatts/m^2,SoftwareType,DateUTC
2013-08-25 08:40:00,69.0,45.0,30.02,SW,223,1.0,3.0,43,-99.99,,,-99.99,433.000000,,2013-08-25 15:40:00,
2013-08-25 09:24:00,69.0,45.0,30.02,SW,223,1.0,3.0,43,-99.99,,,-99.99,433.000000,,2013-08-25 16:24:00,
2013-08-25 09:33:00,69.0,45.0,30.02,SW,223,1.0,3.0,43,-99.99,,,-99.99,433.000000,,2013-08-25 16:33:00,
2013-08-25 15:40:00,73.0,51.0,30.04,West,276,6.0,10.0,46,-99.99,,,-99.99,776.000000,,2013-08-25 22:40:00,
2013-08-25 16:40:00,72.0,53.0,30.03,West,270,5.0,7.0,51,-99.99,,,-99.99,606.000000,,2013-08-25 23:40:00,
2013-08-25 17:22:00,72.0,53.0,30.03,West,270,5.0,7.0,51,-99.99,,,-99.99,606.000000,,2013-08-26 00:22:00,
2013-08-25 17:32:00,72.0,53.0,30.03,West,270,5.0,7.0,51,-99.99,,,-99.99,606.000000,,2013-08-26 00:32:00,
2013-08-25 17:40:00,72.0,52.0,30.02,West,280,4.0,6.0,49,-99.99,,,-99.99,398.000000,,2013-08-26 00:40:00,
2013-08-25 18:22:00,72.0,52.0,30.02,West,280,4.0,6.0,49,-99.99,,,-99.99,398.000000,,2013-08-26 01:22:00,
2013-08-25 18:32:00,72.0,52.0,30.02,West,280,4.0,6.0,49,-99.99,,,-99.99,398.000000,,2013-08-26 01:32:00,
2013-08-25 18:40:00,70.0,52.0,30.00,WNW,283,3.0,5.0,53,-99.99,,,-99.99,182.000000,,2013-08-26 01:40:00,
2013-08-25 19:21:00,70.0,52.0,30.00,WNW,283,3.0,5.0,53,-99.99,,,-99.99,182.000000,,2013-08-26 02:21:00,
2013-08-25 19:32:00,70.0,52.0,30.00,WNW,283,3.0,5.0,53,-99.99,,,-99.99,182.000000,,2013-08-26 02:32:00,
2013-08-25 19:40:00,64.0,53.0,30.00,WNW,294,3.0,4.0,68,-99.99,,,-99.99,24.000000,,2013-08-26 02:40:00,
2013-08-25 20:22:00,64.0,53.0,30.00,WNW,294,3.0,4.0,68,-99.99,,,-99.99,24.000000,,2013-08-26 03:22:00,
2013-08-25 20:34:00,64.0,53.0,30.00,WNW,294,3.0,4.0,68,-99.99,,,-99.99,24.000000,,2013-08-26 03:34:00,
2013-08-25 20:40:00,59.0,54.0,30.01,WNW,283,2.0,3.0,82,-99.99,,,-99.99,0.000000,,2013-08-26 03:40:00,
2013-08-25 21:24:00,59.0,54.0,30.01,WNW,283,2.0,3.0,82,-99.99,,,-99.99,0.000000,,2013-08-26 04:24:00,
2013-08-25 21:34:00,59.0,54.0,30.01,WNW,283,2.0,3.0,82,-99.99,,,-99.99,0.000000,,2013-08-26 04:34:00,
2013-08-25 22:40:00,62.0,44.0,30.02,ENE,65,4.0,4.0,52,-99.99,,,-99.99,0.000000,,2013-08-26 05:40:00,
2013-08-25 23:21:00,62.0,44.0,30.02,ENE,65,4.0,4.0,52,-99.99,,,-99.99,0.000000,,2013-08-26 06:21:00,
2013-08-25 23:32:00,62.0,44.0,30.02,ENE,65,4.0,4.0,52,-99.99,,,-99.99,0.000000,,2013-08-26 06:32:00,